Wetterdaten: Dienstag, 11.02.2014
Datum Zeit Temp. Auen Feucht Auen Luftdruck Regen Richtung Richtung Windben
11.02.2014 00:00 5,1 C 78 % 999,7 hPa 0,0 mm W-NW 295 4,8 km/h (1 Bft)
11.02.2014 00:05 5,2 C 78 % 999,7 hPa 0,0 mm W-NW 294 3,2 km/h (1 Bft)
11.02.2014 00:10 5,1 C 79 % 999,9 hPa 0,0 mm W 273 6,4 km/h (2 Bft)
11.02.2014 00:15 5,2 C 79 % 1000,1 hPa 0,0 mm W 267 6,4 km/h (2 Bft)
11.02.2014 00:20 5,3 C 79 % 1000,1 hPa 0,0 mm W 273 4,8 km/h (1 Bft)
11.02.2014 00:25 5,2 C 79 % 1000,3 hPa 0,0 mm W 271 9,7 km/h (2 Bft)
11.02.2014 00:30 5,2 C 80 % 1000,5 hPa 0,0 mm W 279 3,2 km/h (1 Bft)
11.02.2014 00:35 5,1 C 80 % 1000,5 hPa 0,0 mm W 265 6,4 km/h (2 Bft)
11.02.2014 00:40 5,1 C 80 % 1000,5 hPa 0,0 mm W-NW 286 4,8 km/h (1 Bft)
11.02.2014 00:45 5,1 C 80 % 1000,6 hPa 0,0 mm W-NW 286 3,2 km/h (1 Bft)
11.02.2014 00:50 5,3 C 80 % 1000,7 hPa 0,0 mm W-NW 286 1,6 km/h (1 Bft)
11.02.2014 00:55 5,3 C 79 % 1000,9 hPa 0,0 mm W-NW 286 3,2 km/h (1 Bft)
11.02.2014 01:00 5,1 C 80 % 1001,0 hPa 0,0 mm W-NW 286 1,6 km/h (1 Bft)
11.02.2014 01:05 4,6 C 82 % 1001,0 hPa 0,0 mm W-NW 286 1,6 km/h (1 Bft)
11.02.2014 01:10 4,4 C 83 % 1001,1 hPa 0,0 mm W-NW 286 0,0 km/h (0 Bft)
11.02.2014 01:15 4,4 C 84 % 1001,3 hPa 0,0 mm W-NW 286 0,0 km/h (0 Bft)
11.02.2014 01:20 4,3 C 84 % 1001,3 hPa 0,0 mm W-NW 286 1,6 km/h (1 Bft)
11.02.2014 01:25 4,4 C 85 % 1001,3 hPa 0,0 mm W-NW 286 3,2 km/h (1 Bft)
11.02.2014 01:30 4,6 C 85 % 1001,3 hPa 0,0 mm W-NW 286 0,0 km/h (0 Bft)
11.02.2014 01:35 4,4 C 85 % 1001,4 hPa 0,0 mm W-NW 286 0,0 km/h (0 Bft)
11.02.2014 01:40 4,1 C 86 % 1001,5 hPa 0,0 mm W-NW 286 0,0 km/h (0 Bft)
11.02.2014 01:45 4,1 C 87 % 1001,7 hPa 0,0 mm W-NW 286 0,0 km/h (0 Bft)
11.02.2014 01:50 4,0 C 88 % 1001,9 hPa 0,0 mm W-NW 286 0,0 km/h (0 Bft)
11.02.2014 01:55 3,7 C 88 % 1002,0 hPa 0,0 mm W-NW 286 0,0 km/h (0 Bft)
11.02.2014 02:00 3,7 C 89 % 1002,1 hPa 0,0 mm W-NW 286 0,0 km/h (0 Bft)
11.02.2014 02:05 3,8 C 89 % 1002,2 hPa 0,0 mm W-NW 286 0,0 km/h (0 Bft)
11.02.2014 02:10 3,8 C 89 % 1002,3 hPa 0,0 mm N-NW 342 4,8 km/h (1 Bft)
11.02.2014 02:15 3,6 C 90 % 1002,4 hPa 0,2 mm O-SO 118 1,6 km/h (1 Bft)
11.02.2014 02:20 3,4 C 90 % 1002,6 hPa 0,0 mm W-NW 283 3,2 km/h (1 Bft)
11.02.2014 02:25 3,5 C 91 % 1002,9 hPa 0,0 mm W-NW 283 4,8 km/h (1 Bft)
11.02.2014 02:30 3,6 C 91 % 1003,0 hPa 0,2 mm W-NW 282 3,2 km/h (1 Bft)
11.02.2014 02:35 3,8 C 91 % 1003,2 hPa 0,0 mm SW 230 8,0 km/h (2 Bft)
11.02.2014 02:40 4,0 C 91 % 1003,3 hPa 0,2 mm W 271 8,0 km/h (2 Bft)
11.02.2014 02:45 4,2 C 91 % 1003,4 hPa 0,2 mm W 277 9,7 km/h (2 Bft)
11.02.2014 02:50 4,2 C 91 % 1003,5 hPa 0,0 mm W 276 6,4 km/h (2 Bft)
11.02.2014 02:55 4,2 C 91 % 1003,5 hPa 0,0 mm W 277 6,4 km/h (2 Bft)
11.02.2014 03:00 4,2 C 91 % 1003,5 hPa 0,0 mm W 275 4,8 km/h (1 Bft)
11.02.2014 03:05 4,1 C 91 % 1003,5 hPa 0,2 mm W 275 4,8 km/h (1 Bft)
11.02.2014 03:10 4,1 C 91 % 1003,4 hPa 0,0 mm W 277 3,2 km/h (1 Bft)
11.02.2014 03:15 4,1 C 92 % 1003,5 hPa 0,2 mm W 269 4,8 km/h (1 Bft)
11.02.2014 03:20 4,1 C 92 % 1003,7 hPa 0,0 mm W 269 3,2 km/h (1 Bft)
11.02.2014 03:25 4,2 C 92 % 1003,5 hPa 0,0 mm W 274 4,8 km/h (1 Bft)
11.02.2014 03:30 4,2 C 92 % 1003,5 hPa 0,0 mm W 274 4,8 km/h (1 Bft)
11.02.2014 03:35 4,2 C 92 % 1003,6 hPa 0,0 mm W 274 4,8 km/h (1 Bft)
11.02.2014 03:40 4,1 C 92 % 1003,7 hPa 0,0 mm W 274 3,2 km/h (1 Bft)
11.02.2014 03:45 4,1 C 92 % 1003,7 hPa 0,0 mm W 274 1,6 km/h (1 Bft)
11.02.2014 03:50 4,1 C 92 % 1003,8 hPa 0,0 mm W 274 1,6 km/h (1 Bft)
11.02.2014 03:55 4,0 C 92 % 1003,9 hPa 0,0 mm W 273 3,2 km/h (1 Bft)
11.02.2014 04:00 4,0 C 92 % 1004,1 hPa 0,0 mm W 273 4,8 km/h (1 Bft)
11.02.2014 04:05 4,0 C 92 % 1004,1 hPa 0,2 mm W 272 6,4 km/h (2 Bft)
11.02.2014 04:10 4,0 C 92 % 1004,2 hPa 0,0 mm W-NW 284 4,8 km/h (1 Bft)
11.02.2014 04:15 4,0 C 92 % 1004,2 hPa 0,2 mm W-NW 283 4,8 km/h (1 Bft)
11.02.2014 04:20 4,0 C 92 % 1004,3 hPa 0,0 mm W-NW 283 4,8 km/h (1 Bft)
11.02.2014 04:25 4,0 C 92 % 1004,4 hPa 0,0 mm W-NW 283 3,2 km/h (1 Bft)
11.02.2014 04:30 3,9 C 92 % 1004,4 hPa 0,0 mm W-NW 283 0,0 km/h (0 Bft)
11.02.2014 04:35 3,9 C 92 % 1004,4 hPa 0,2 mm W-NW 283 0,0 km/h (0 Bft)
11.02.2014 04:40 3,9 C 92 % 1004,5 hPa 0,0 mm W-NW 283 1,6 km/h (1 Bft)
11.02.2014 04:45 3,9 C 92 % 1004,5 hPa 0,2 mm W-NW 283 3,2 km/h (1 Bft)
11.02.2014 04:50 3,9 C 92 % 1004,6 hPa 0,0 mm W-NW 283 1,6 km/h (1 Bft)
11.02.2014 04:55 3,9 C 92 % 1004,7 hPa 0,2 mm W-NW 283 1,6 km/h (1 Bft)
11.02.2014 05:00 3,9 C 92 % 1004,8 hPa 0,0 mm W-NW 283 4,8 km/h (1 Bft)
11.02.2014 05:05 3,9 C 92 % 1004,9 hPa 0,2 mm W-NW 283 1,6 km/h (1 Bft)
11.02.2014 05:10 3,9 C 92 % 1005,0 hPa 0,0 mm W-NW 283 3,2 km/h (1 Bft)
11.02.2014 05:15 3,9 C 92 % 1005,1 hPa 0,2 mm W 270 4,8 km/h (1 Bft)
11.02.2014 05:20 3,9 C 92 % 1005,2 hPa 0,0 mm W 264 8,0 km/h (2 Bft)
11.02.2014 05:25 3,9 C 92 % 1005,5 hPa 0,2 mm W-NW 294 6,4 km/h (2 Bft)
11.02.2014 05:30 3,9 C 92 % 1005,5 hPa 0,4 mm W-NW 284 16,1 km/h (3 Bft)
11.02.2014 05:35 3,8 C 92 % 1005,6 hPa 0,4 mm W 266 11,3 km/h (2 Bft)
11.02.2014 05:40 3,8 C 92 % 1005,6 hPa 0,4 mm W 276 12,9 km/h (3 Bft)
11.02.2014 05:45 3,8 C 92 % 1005,6 hPa 0,4 mm W 275 11,3 km/h (2 Bft)
11.02.2014 05:50 3,9 C 92 % 1005,6 hPa 0,4 mm W 271 9,7 km/h (2 Bft)
11.02.2014 05:55 3,9 C 92 % 1005,7 hPa 0,2 mm W-SW 242 11,3 km/h (2 Bft)
11.02.2014 06:00 3,9 C 92 % 1005,8 hPa 0,2 mm W 281 9,7 km/h (2 Bft)
11.02.2014 06:05 3,9 C 92 % 1005,8 hPa 0,2 mm W 272 6,4 km/h (2 Bft)
11.02.2014 06:10 3,9 C 92 % 1005,9 hPa 0,2 mm W 274 4,8 km/h (1 Bft)
11.02.2014 06:15 3,8 C 92 % 1005,9 hPa 0,2 mm W 279 6,4 km/h (2 Bft)
11.02.2014 06:20 3,9 C 92 % 1005,9 hPa 0,0 mm W 277 6,4 km/h (2 Bft)
11.02.2014 06:25 3,9 C 92 % 1006,0 hPa 0,0 mm W 263 8,0 km/h (2 Bft)
11.02.2014 06:30 3,9 C 92 % 1006,1 hPa 0,2 mm W-NW 291 12,9 km/h (3 Bft)
11.02.2014 06:35 4,0 C 92 % 1006,2 hPa 0,0 mm W 267 12,9 km/h (3 Bft)
11.02.2014 06:40 4,0 C 92 % 1006,3 hPa 0,0 mm W 269 9,7 km/h (2 Bft)
11.02.2014 06:45 4,0 C 92 % 1006,4 hPa 0,0 mm W 279 12,9 km/h (3 Bft)
11.02.2014 06:50 4,0 C 92 % 1006,6 hPa 0,2 mm W-SW 258 14,5 km/h (3 Bft)
11.02.2014 06:55 4,1 C 92 % 1006,8 hPa 0,0 mm W 259 19,3 km/h (3 Bft)
11.02.2014 07:00 4,0 C 92 % 1007,0 hPa 0,0 mm W-SW 256 16,1 km/h (3 Bft)
11.02.2014 07:05 3,9 C 92 % 1007,2 hPa 0,0 mm W 269 12,9 km/h (3 Bft)
11.02.2014 07:10 3,9 C 92 % 1007,4 hPa 0,2 mm W 263 14,5 km/h (3 Bft)
11.02.2014 07:15 3,9 C 92 % 1007,5 hPa 0,4 mm W-SW 248 16,1 km/h (3 Bft)
11.02.2014 07:20 3,8 C 92 % 1007,5 hPa 0,2 mm W 271 19,3 km/h (3 Bft)
11.02.2014 07:25 3,8 C 92 % 1007,6 hPa 0,2 mm W 275 12,9 km/h (3 Bft)
11.02.2014 07:30 3,7 C 92 % 1007,7 hPa 0,0 mm W 259 8,0 km/h (2 Bft)
11.02.2014 07:35 3,7 C 92 % 1007,9 hPa 0,0 mm W 273 6,4 km/h (2 Bft)
11.02.2014 07:40 3,7 C 92 % 1008,0 hPa 0,2 mm W 263 11,3 km/h (2 Bft)
11.02.2014 07:45 3,6 C 92 % 1008,2 hPa 0,0 mm W 275 14,5 km/h (3 Bft)
11.02.2014 07:50 3,5 C 92 % 1008,2 hPa 0,2 mm W 261 16,1 km/h (3 Bft)
11.02.2014 07:55 3,5 C 92 % 1008,3 hPa 0,0 mm W-SW 254 11,3 km/h (2 Bft)
11.02.2014 08:00 3,4 C 92 % 1008,4 hPa 0,2 mm W 264 11,3 km/h (2 Bft)
11.02.2014 08:05 3,3 C 92 % 1008,4 hPa 0,2 mm W 263 16,1 km/h (3 Bft)
11.02.2014 08:10 3,3 C 92 % 1008,6 hPa 0,0 mm W 263 16,1 km/h (3 Bft)
11.02.2014 08:15 3,2 C 92 % 1008,7 hPa 0,4 mm W 263 11,3 km/h (2 Bft)
11.02.2014 08:20 3,1 C 92 % 1008,9 hPa 0,0 mm W 281 16,1 km/h (3 Bft)
11.02.2014 08:25 3,1 C 92 % 1009,0 hPa 0,2 mm W 268 11,3 km/h (2 Bft)
11.02.2014 08:30 3,1 C 92 % 1009,2 hPa 0,2 mm W 279 11,3 km/h (2 Bft)
11.02.2014 08:35 3,0 C 92 % 1009,1 hPa 0,4 mm W-SW 240 14,5 km/h (3 Bft)
11.02.2014 08:40 2,9 C 92 % 1009,3 hPa 0,0 mm W 273 9,7 km/h (2 Bft)
11.02.2014 08:45 2,9 C 92 % 1009,3 hPa 0,0 mm W 271 8,0 km/h (2 Bft)
11.02.2014 08:50 2,9 C 92 % 1009,4 hPa 0,0 mm W 268 4,8 km/h (1 Bft)
11.02.2014 08:55 2,9 C 92 % 1009,4 hPa 0,0 mm W 266 4,8 km/h (1 Bft)
11.02.2014 09:00 2,9 C 92 % 1009,5 hPa 0,0 mm W 269 6,4 km/h (2 Bft)
11.02.2014 09:05 3,0 C 92 % 1009,4 hPa 0,0 mm W-NW 290 11,3 km/h (2 Bft)
11.02.2014 09:10 3,0 C 92 % 1009,5 hPa 0,0 mm W 281 9,7 km/h (2 Bft)
11.02.2014 09:15 3,1 C 92 % 1009,6 hPa 0,0 mm W 267 9,7 km/h (2 Bft)
11.02.2014 09:20 3,1 C 92 % 1009,7 hPa 0,2 mm W 271 11,3 km/h (2 Bft)
11.02.2014 09:25 3,1 C 92 % 1009,7 hPa 0,0 mm W 269 8,0 km/h (2 Bft)
11.02.2014 09:30 3,2 C 92 % 1009,8 hPa 0,0 mm W 276 8,0 km/h (2 Bft)
11.02.2014 09:35 3,2 C 92 % 1009,9 hPa 0,0 mm W 270 9,7 km/h (2 Bft)
11.02.2014 09:40 3,3 C 92 % 1009,9 hPa 0,0 mm W 271 9,7 km/h (2 Bft)
11.02.2014 09:45 3,4 C 92 % 1010,0 hPa 0,0 mm W 277 6,4 km/h (2 Bft)
11.02.2014 09:50 3,6 C 92 % 1009,9 hPa 0,0 mm W 270 6,4 km/h (2 Bft)
11.02.2014 09:55 3,7 C 92 % 1010,0 hPa 0,0 mm W 279 6,4 km/h (2 Bft)
11.02.2014 10:00 3,8 C 92 % 1010,0 hPa 0,0 mm W 278 6,4 km/h (2 Bft)
11.02.2014 10:05 3,8 C 92 % 1010,0 hPa 0,0 mm W-SW 258 4,8 km/h (1 Bft)
11.02.2014 10:10 3,9 C 92 % 1010,1 hPa 0,0 mm W-NW 283 4,8 km/h (1 Bft)
11.02.2014 10:15 3,9 C 92 % 1010,0 hPa 0,0 mm W 272 6,4 km/h (2 Bft)
11.02.2014 10:20 4,0 C 92 % 1010,0 hPa 0,2 mm W 272 3,2 km/h (1 Bft)
11.02.2014 10:25 4,1 C 92 % 1010,1 hPa 0,0 mm W 272 3,2 km/h (1 Bft)
11.02.2014 10:30 4,2 C 92 % 1010,0 hPa 0,0 mm W 272 3,2 km/h (1 Bft)
11.02.2014 10:35 4,2 C 92 % 1010,0 hPa 0,0 mm W 272 4,8 km/h (1 Bft)
11.02.2014 10:40 4,3 C 91 % 1010,0 hPa 0,0 mm W 272 4,8 km/h (1 Bft)
11.02.2014 10:45 4,4 C 91 % 1010,0 hPa 0,0 mm W 272 3,2 km/h (1 Bft)
11.02.2014 10:50 4,4 C 91 % 1010,0 hPa 0,0 mm W 266 3,2 km/h (1 Bft)
11.02.2014 10:55 4,3 C 91 % 1010,0 hPa 0,0 mm W 266 4,8 km/h (1 Bft)
11.02.2014 11:00 4,3 C 91 % 1010,1 hPa 0,0 mm W 267 3,2 km/h (1 Bft)
11.02.2014 11:05 4,3 C 91 % 1010,2 hPa 0,0 mm W 267 0,0 km/h (0 Bft)
11.02.2014 11:10 4,2 C 91 % 1010,1 hPa 0,0 mm W 267 0,0 km/h (0 Bft)
11.02.2014 11:15 4,2 C 91 % 1010,2 hPa 0,0 mm W 281 8,0 km/h (2 Bft)
11.02.2014 11:20 4,1 C 91 % 1010,2 hPa 0,2 mm W-NW 292 4,8 km/h (1 Bft)
11.02.2014 11:25 4,0 C 91 % 1010,2 hPa 0,0 mm W-NW 301 4,8 km/h (1 Bft)
11.02.2014 11:30 3,9 C 91 % 1010,1 hPa 0,2 mm W-NW 300 4,8 km/h (1 Bft)
11.02.2014 11:35 4,1 C 92 % 1010,1 hPa 0,0 mm W 266 4,8 km/h (1 Bft)
11.02.2014 11:40 4,1 C 92 % 1010,0 hPa 0,0 mm W 281 4,8 km/h (1 Bft)
11.02.2014 11:45 4,2 C 92 % 1009,9 hPa 0,0 mm W 281 1,6 km/h (1 Bft)
11.02.2014 11:50 4,2 C 91 % 1009,8 hPa 0,0 mm W 281 1,6 km/h (1 Bft)
11.02.2014 11:55 4,3 C 91 % 1009,7 hPa 0,0 mm W 281 0,0 km/h (0 Bft)
11.02.2014 12:00 4,2 C 91 % 1009,7 hPa 0,0 mm W 281 0,0 km/h (0 Bft)
11.02.2014 12:05 4,3 C 91 % 1009,7 hPa 0,0 mm W 281 3,2 km/h (1 Bft)
11.02.2014 12:10 4,5 C 91 % 1009,7 hPa 0,0 mm W 279 3,2 km/h (1 Bft)
11.02.2014 12:15 4,6 C 91 % 1009,6 hPa 0,0 mm W-SW 250 4,8 km/h (1 Bft)
11.02.2014 12:20 4,7 C 91 % 1009,5 hPa 0,0 mm W-SW 251 3,2 km/h (1 Bft)
11.02.2014 12:25 4,9 C 91 % 1009,4 hPa 0,0 mm W-SW 251 0,0 km/h (0 Bft)
11.02.2014 12:30 4,9 C 90 % 1009,3 hPa 0,0 mm W-NW 291 0,0 km/h (0 Bft)
11.02.2014 12:35 5,1 C 90 % 1009,3 hPa 0,0 mm W-NW 291 0,0 km/h (0 Bft)
11.02.2014 12:40 5,2 C 90 % 1009,2 hPa 0,0 mm W-NW 291 0,0 km/h (0 Bft)
11.02.2014 12:45 5,2 C 89 % 1009,2 hPa 0,0 mm W-NW 291 0,0 km/h (0 Bft)
11.02.2014 12:50 5,2 C 89 % 1009,0 hPa 0,0 mm W-NW 291 0,0 km/h (0 Bft)
11.02.2014 12:55 5,3 C 89 % 1009,0 hPa 0,0 mm S 178 3,2 km/h (1 Bft)
11.02.2014 13:00 5,4 C 86 % 1009,0 hPa 0,0 mm S 178 4,8 km/h (1 Bft)
11.02.2014 13:05 5,1 C 88 % 1009,0 hPa 0,0 mm O 82 6,4 km/h (2 Bft)
11.02.2014 13:10 4,8 C 89 % 1008,9 hPa 0,0 mm O-NO 63 3,2 km/h (1 Bft)
11.02.2014 13:15 4,7 C 90 % 1008,8 hPa 0,0 mm O-SO 104 3,2 km/h (1 Bft)
11.02.2014 13:20 4,8 C 90 % 1008,7 hPa 0,0 mm O-SO 104 1,6 km/h (1 Bft)
11.02.2014 13:25 4,8 C 90 % 1008,6 hPa 0,0 mm O-SO 120 4,8 km/h (1 Bft)
11.02.2014 13:30 4,9 C 90 % 1008,6 hPa 0,0 mm SO 129 4,8 km/h (1 Bft)
11.02.2014 13:35 5,0 C 90 % 1008,6 hPa 0,0 mm O-SO 121 4,8 km/h (1 Bft)
11.02.2014 13:40 5,1 C 90 % 1008,6 hPa 0,0 mm O 101 4,8 km/h (1 Bft)
11.02.2014 13:45 5,2 C 89 % 1008,5 hPa 0,0 mm SO 132 4,8 km/h (1 Bft)
11.02.2014 13:50 5,3 C 88 % 1008,4 hPa 0,0 mm SO 132 1,6 km/h (1 Bft)
11.02.2014 13:55 5,4 C 87 % 1008,4 hPa 0,0 mm SO 132 1,6 km/h (1 Bft)
11.02.2014 14:00 5,5 C 87 % 1008,4 hPa 0,0 mm O 80 4,8 km/h (1 Bft)
11.02.2014 14:05 5,5 C 86 % 1008,3 hPa 0,0 mm O 80 3,2 km/h (1 Bft)
11.02.2014 14:10 5,7 C 87 % 1008,2 hPa 0,0 mm O 80 3,2 km/h (1 Bft)
11.02.2014 14:15 5,9 C 86 % 1008,0 hPa 0,0 mm SO 145 4,8 km/h (1 Bft)
11.02.2014 14:20 5,8 C 83 % 1008,0 hPa 0,0 mm S-SO 158 6,4 km/h (2 Bft)
11.02.2014 14:25 5,9 C 86 % 1008,0 hPa 0,0 mm O-SO 105 6,4 km/h (2 Bft)
11.02.2014 14:30 5,6 C 85 % 1007,9 hPa 0,0 mm SO 132 6,4 km/h (2 Bft)
11.02.2014 14:35 5,4 C 85 % 1007,8 hPa 0,0 mm O-SO 112 4,8 km/h (1 Bft)
11.02.2014 14:40 5,4 C 86 % 1007,8 hPa 0,0 mm O-SO 112 4,8 km/h (1 Bft)
11.02.2014 14:45 5,5 C 85 % 1007,8 hPa 0,0 mm SO 130 4,8 km/h (1 Bft)
11.02.2014 14:50 5,5 C 85 % 1007,7 hPa 0,0 mm SO 128 6,4 km/h (2 Bft)
11.02.2014 14:55 5,7 C 86 % 1007,6 hPa 0,0 mm O 97 8,0 km/h (2 Bft)
11.02.2014 15:00 5,8 C 85 % 1007,6 hPa 0,0 mm SO 140 6,4 km/h (2 Bft)
11.02.2014 15:05 5,7 C 84 % 1007,6 hPa 0,0 mm O-SO 117 8,0 km/h (2 Bft)
11.02.2014 15:10 5,7 C 83 % 1007,7 hPa 0,0 mm O-SO 114 8,0 km/h (2 Bft)
11.02.2014 15:15 5,7 C 83 % 1007,6 hPa 0,0 mm O 97 8,0 km/h (2 Bft)
11.02.2014 15:20 5,5 C 84 % 1007,6 hPa 0,0 mm O-SO 108 8,0 km/h (2 Bft)
11.02.2014 15:25 5,4 C 85 % 1007,6 hPa 0,0 mm O-NO 65 8,0 km/h (2 Bft)
11.02.2014 15:30 5,3 C 85 % 1007,5 hPa 0,0 mm O 101 6,4 km/h (2 Bft)
11.02.2014 15:35 5,3 C 87 % 1007,4 hPa 0,0 mm O-SO 115 4,8 km/h (1 Bft)
11.02.2014 15:40 5,2 C 87 % 1007,5 hPa 0,0 mm O 91 6,4 km/h (2 Bft)
11.02.2014 15:45 5,3 C 88 % 1007,4 hPa 0,0 mm O-SO 110 6,4 km/h (2 Bft)
11.02.2014 15:50 5,3 C 87 % 1007,2 hPa 0,0 mm O-SO 113 4,8 km/h (1 Bft)
11.02.2014 15:55 5,4 C 86 % 1007,1 hPa 0,0 mm SO 135 6,4 km/h (2 Bft)
11.02.2014 16:00 5,3 C 85 % 1007,2 hPa 0,0 mm O-SO 123 6,4 km/h (2 Bft)
11.02.2014 16:05 5,3 C 85 % 1007,1 hPa 0,0 mm O-SO 103 4,8 km/h (1 Bft)
11.02.2014 16:10 5,3 C 85 % 1006,9 hPa 0,0 mm O 92 3,2 km/h (1 Bft)
11.02.2014 16:15 5,3 C 85 % 1007,1 hPa 0,0 mm O 92 1,6 km/h (1 Bft)
11.02.2014 16:20 5,2 C 85 % 1007,0 hPa 0,0 mm O 92 1,6 km/h (1 Bft)
11.02.2014 16:25 5,2 C 86 % 1007,1 hPa 0,0 mm SO 143 3,2 km/h (1 Bft)
11.02.2014 16:30 5,1 C 87 % 1007,0 hPa 0,0 mm S 176 3,2 km/h (1 Bft)
11.02.2014 16:35 5,0 C 87 % 1007,1 hPa 0,0 mm S 176 3,2 km/h (1 Bft)
11.02.2014 16:40 4,8 C 88 % 1007,0 hPa 0,0 mm S 176 1,6 km/h (1 Bft)
11.02.2014 16:45 4,8 C 89 % 1007,1 hPa 0,0 mm S 176 0,0 km/h (0 Bft)
11.02.2014 16:50 4,7 C 88 % 1007,1 hPa 0,0 mm S 176 0,0 km/h (0 Bft)
11.02.2014 16:55 4,6 C 88 % 1007,1 hPa 0,0 mm S 176 1,6 km/h (1 Bft)
11.02.2014 17:00 4,4 C 89 % 1007,0 hPa 0,0 mm S 176 1,6 km/h (1 Bft)
11.02.2014 17:05 4,1 C 89 % 1007,2 hPa 0,0 mm S 176 1,6 km/h (1 Bft)
11.02.2014 17:10 3,9 C 90 % 1007,2 hPa 0,0 mm S 176 1,6 km/h (1 Bft)
11.02.2014 17:15 3,6 C 90 % 1007,3 hPa 0,0 mm S 176 0,0 km/h (0 Bft)
11.02.2014 17:20 3,4 C 90 % 1007,5 hPa 0,0 mm S 176 0,0 km/h (0 Bft)
11.02.2014 17:25 3,3 C 90 % 1007,4 hPa 0,0 mm S 176 0,0 km/h (0 Bft)
11.02.2014 17:30 3,2 C 91 % 1007,5 hPa 0,0 mm S 176 1,6 km/h (1 Bft)
11.02.2014 17:35 3,1 C 91 % 1007,5 hPa 0,0 mm S 176 1,6 km/h (1 Bft)
11.02.2014 17:40 3,0 C 91 % 1007,6 hPa 0,0 mm S 176 0,0 km/h (0 Bft)
11.02.2014 17:45 2,8 C 91 % 1007,7 hPa 0,0 mm S 176 0,0 km/h (0 Bft)
11.02.2014 17:50 2,8 C 91 % 1007,7 hPa 0,0 mm S 176 0,0 km/h (0 Bft)
11.02.2014 17:55 2,7 C 91 % 1007,9 hPa 0,0 mm S 176 0,0 km/h (0 Bft)
11.02.2014 18:00 2,7 C 91 % 1008,0 hPa 0,0 mm S 176 0,0 km/h (0 Bft)
11.02.2014 18:05 2,7 C 92 % 1008,0 hPa 0,0 mm S 176 0,0 km/h (0 Bft)
11.02.2014 18:10 2,6 C 91 % 1008,1 hPa 0,0 mm S 176 0,0 km/h (0 Bft)
11.02.2014 18:15 2,4 C 91 % 1008,0 hPa 0,0 mm S 176 0,0 km/h (0 Bft)
11.02.2014 18:20 2,4 C 91 % 1008,0 hPa 0,0 mm S 176 0,0 km/h (0 Bft)
11.02.2014 18:25 2,3 C 91 % 1007,9 hPa 0,0 mm S 176 0,0 km/h (0 Bft)
11.02.2014 18:30 2,2 C 91 % 1007,9 hPa 0,0 mm S 176 0,0 km/h (0 Bft)
11.02.2014 18:35 2,1 C 91 % 1008,0 hPa 0,0 mm S 176 0,0 km/h (0 Bft)
11.02.2014 18:40 2,1 C 91 % 1008,0 hPa 0,0 mm S 176 3,2 km/h (1 Bft)
11.02.2014 18:45 2,1 C 92 % 1007,9 hPa 0,0 mm S 176 3,2 km/h (1 Bft)
11.02.2014 18:50 2,0 C 92 % 1007,9 hPa 0,0 mm S 176 0,0 km/h (0 Bft)
11.02.2014 18:55 1,9 C 91 % 1007,8 hPa 0,0 mm S 176 1,6 km/h (1 Bft)
11.02.2014 19:00 1,8 C 92 % 1007,9 hPa 0,0 mm S 176 0,0 km/h (0 Bft)
11.02.2014 19:05 1,8 C 92 % 1007,9 hPa 0,0 mm S 176 0,0 km/h (0 Bft)
11.02.2014 19:10 1,7 C 92 % 1007,9 hPa 0,0 mm S 176 0,0 km/h (0 Bft)
11.02.2014 19:15 1,6 C 92 % 1007,9 hPa 0,0 mm S 176 0,0 km/h (0 Bft)
11.02.2014 19:20 1,4 C 92 % 1008,0 hPa 0,0 mm S 176 1,6 km/h (1 Bft)
11.02.2014 19:25 1,4 C 92 % 1007,9 hPa 0,0 mm S 176 0,0 km/h (0 Bft)
11.02.2014 19:30 1,3 C 92 % 1008,0 hPa 0,0 mm S 176 0,0 km/h (0 Bft)
11.02.2014 19:35 1,3 C 92 % 1007,9 hPa 0,0 mm S 177 1,6 km/h (1 Bft)
11.02.2014 19:40 1,1 C 92 % 1008,0 hPa 0,0 mm S 182 1,6 km/h (1 Bft)
11.02.2014 19:45 1,1 C 92 % 1008,1 hPa 0,0 mm S 182 1,6 km/h (1 Bft)
11.02.2014 19:50 1,1 C 92 % 1008,1 hPa 0,0 mm S 182 1,6 km/h (1 Bft)
11.02.2014 19:55 1,0 C 92 % 1008,1 hPa 0,0 mm S 182 0,0 km/h (0 Bft)
11.02.2014 20:00 0,8 C 92 % 1008,1 hPa 0,0 mm S 182 0,0 km/h (0 Bft)
11.02.2014 20:05 0,7 C 92 % 1008,1 hPa 0,0 mm S 182 0,0 km/h (0 Bft)
11.02.2014 20:10 0,7 C 92 % 1007,9 hPa 0,0 mm S 182 0,0 km/h (0 Bft)
11.02.2014 20:15 0,6 C 92 % 1007,9 hPa 0,0 mm S 182 1,6 km/h (1 Bft)
11.02.2014 20:20 0,6 C 92 % 1007,9 hPa 0,0 mm S 182 1,6 km/h (1 Bft)
11.02.2014 20:25 0,6 C 92 % 1008,0 hPa 0,0 mm SW 236 3,2 km/h (1 Bft)
11.02.2014 20:30 0,6 C 92 % 1007,9 hPa 0,0 mm W-SW 252 3,2 km/h (1 Bft)
11.02.2014 20:35 0,6 C 92 % 1007,9 hPa 0,0 mm W-SW 252 0,0 km/h (0 Bft)
11.02.2014 20:40 0,6 C 92 % 1008,0 hPa 0,0 mm W-SW 252 1,6 km/h (1 Bft)
11.02.2014 20:45 0,5 C 92 % 1007,8 hPa 0,0 mm W-SW 252 1,6 km/h (1 Bft)
11.02.2014 20:50 0,6 C 92 % 1007,9 hPa 0,0 mm W-SW 252 0,0 km/h (0 Bft)
11.02.2014 20:55 0,5 C 92 % 1007,9 hPa 0,0 mm W-SW 252 3,2 km/h (1 Bft)
11.02.2014 21:00 0,5 C 92 % 1008,0 hPa 0,0 mm W-SW 252 3,2 km/h (1 Bft)
11.02.2014 21:05 0,4 C 92 % 1007,9 hPa 0,0 mm W-SW 252 1,6 km/h (1 Bft)
11.02.2014 21:10 0,4 C 93 % 1007,9 hPa 0,0 mm W-SW 252 3,2 km/h (1 Bft)
11.02.2014 21:15 0,3 C 93 % 1007,9 hPa 0,0 mm W-SW 252 1,6 km/h (1 Bft)
11.02.2014 21:20 0,3 C 92 % 1007,9 hPa 0,0 mm W-SW 252 1,6 km/h (1 Bft)
11.02.2014 21:25 0,2 C 92 % 1008,0 hPa 0,0 mm W-SW 252 1,6 km/h (1 Bft)
11.02.2014 21:30 0,2 C 93 % 1007,9 hPa 0,0 mm W-SW 252 0,0 km/h (0 Bft)
11.02.2014 21:35 0,2 C 93 % 1007,9 hPa 0,0 mm W-SW 252 0,0 km/h (0 Bft)
11.02.2014 21:40 0,2 C 93 % 1007,8 hPa 0,0 mm W-SW 252 0,0 km/h (0 Bft)
11.02.2014 21:45 0,2 C 93 % 1007,8 hPa 0,0 mm W-SW 252 1,6 km/h (1 Bft)
11.02.2014 21:50 0,1 C 93 % 1007,7 hPa 0,0 mm W-SW 252 0,0 km/h (0 Bft)
11.02.2014 21:55 0,1 C 93 % 1007,8 hPa 0,0 mm W-SW 252 0,0 km/h (0 Bft)
11.02.2014 22:00 0,0 C 93 % 1007,8 hPa 0,0 mm W-SW 252 0,0 km/h (0 Bft)
11.02.2014 22:05 -0,1 C 93 % 1007,7 hPa 0,0 mm W-SW 252 0,0 km/h (0 Bft)
11.02.2014 22:10 -0,1 C 93 % 1007,8 hPa 0,0 mm W-SW 252 0,0 km/h (0 Bft)
11.02.2014 22:15 -0,1 C 93 % 1007,7 hPa 0,0 mm W-SW 252 0,0 km/h (0 Bft)
11.02.2014 22:20 0,0 C 93 % 1007,7 hPa 0,0 mm W-SW 252 0,0 km/h (0 Bft)
11.02.2014 22:25 0,0 C 93 % 1007,6 hPa 0,0 mm W-SW 252 1,6 km/h (1 Bft)
11.02.2014 22:30 -0,1 C 93 % 1007,7 hPa 0,0 mm W-SW 252 0,0 km/h (0 Bft)
11.02.2014 22:35 -0,1 C 93 % 1007,6 hPa 0,0 mm W-SW 252 0,0 km/h (0 Bft)
11.02.2014 22:40 -0,2 C 93 % 1007,6 hPa 0,0 mm W-SW 252 1,6 km/h (1 Bft)
11.02.2014 22:45 -0,1 C 93 % 1007,6 hPa 0,0 mm W-SW 252 1,6 km/h (1 Bft)
11.02.2014 22:50 -0,1 C 93 % 1007,6 hPa 0,0 mm W-SW 252 1,6 km/h (1 Bft)
11.02.2014 22:55 -0,1 C 93 % 1007,5 hPa 0,0 mm W-SW 252 1,6 km/h (1 Bft)
11.02.2014 23:00 -0,1 C 93 % 1007,5 hPa 0,0 mm W-SW 252 3,2 km/h (1 Bft)
11.02.2014 23:05 -0,1 C 93 % 1007,5 hPa 0,0 mm W-NW 282 4,8 km/h (1 Bft)
11.02.2014 23:10 -0,2 C 93 % 1007,4 hPa 0,0 mm W-NW 282 1,6 km/h (1 Bft)
11.02.2014 23:15 -0,2 C 93 % 1007,5 hPa 0,0 mm W-NW 282 1,6 km/h (1 Bft)
11.02.2014 23:20 -0,2 C 93 % 1007,5 hPa 0,0 mm W-NW 282 1,6 km/h (1 Bft)
11.02.2014 23:25 -0,2 C 93 % 1007,5 hPa 0,0 mm W-NW 282 3,2 km/h (1 Bft)
11.02.2014 23:30 -0,2 C 93 % 1007,6 hPa 0,0 mm W-NW 282 1,6 km/h (1 Bft)
11.02.2014 23:35 -0,2 C 93 % 1007,6 hPa 0,0 mm W-NW 282 0,0 km/h (0 Bft)
11.02.2014 23:40 -0,3 C 93 % 1007,6 hPa 0,0 mm W-NW 282 0,0 km/h (0 Bft)
11.02.2014 23:45 -0,3 C 93 % 1007,6 hPa 0,0 mm W-NW 282 0,0 km/h (0 Bft)
11.02.2014 23:50 -0,3 C 93 % 1007,5 hPa 0,0 mm W-NW 282 0,0 km/h (0 Bft)
11.02.2014 23:55 -0,3 C 93 % 1007,5 hPa 0,0 mm W-NW 282 0,0 km/h (0 Bft)
_ Min-Zeit 23:40 00:00 00:00 - - - 01:10
Minimum _ -0,3 C 78 % 999,7 hPa - - - 0,0 km/h (0 Bft)
_ Max-Zeit 14:20 21:10 11:05 05:30 - - 06:55
Maximum _ 6,1 C 93 % 1010,2 hPa 0,4 mm - - 19,3 km/h
W (3 Bft)
Durchschnitt _ 3,4 C 90 % 1006,9 hPa #10,0 mm W - 4,3 km/h (1 Bft)